EN

Hourly Weather Bolshoe Horoshovo

Today, 25 October, Sunday

Time Temperature Precipitation Wind Pressure Humidity
00:00 +9°C° 0.7 mm 1 mps 743 mmHg 93%
01:00 +9°C° 1 mm 1 mps 743 mmHg 94%
02:00 +9°C° 1 mm 1 mps 743 mmHg 95%
03:00 +9°C° 1 mm 1 mps 743 mmHg 96%
04:00 +8°C° 0.2 mm 2 mps 743 mmHg 95%
05:00 +8°C° 0.2 mm 2 mps 744 mmHg 95%
06:00 +8°C° 0.2 mm 3 mps 744 mmHg 94%
07:00 +8°C° 0 mm 3 mps 744 mmHg 92%
08:00 +8°C° 0 mm 3 mps 745 mmHg 91%
09:00 +7°C° 0 mm 4 mps 746 mmHg 89%
10:00 +8°C° 0.1 mm 4 mps 746 mmHg 86%
11:00 +8°C° 0.1 mm 4 mps 746 mmHg 83%
12:00 +8°C° 0.1 mm 4 mps 747 mmHg 80%
13:00 +8°C° 0 mm 4 mps 747 mmHg 80%
14:00 +8°C° 0 mm 4 mps 748 mmHg 79%
15:00 +10°C° 0 mm 4 mps 748 mmHg 78%
16:00 +9°C° 0 mm 3 mps 748 mmHg 83%
17:00 +8°C° 0 mm 3 mps 748 mmHg 87%
18:00 +7°C° 0 mm 2 mps 749 mmHg 92%
19:00 +7°C° 0 mm 2 mps 749 mmHg 91%
20:00 +8°C° 0 mm 3 mps 750 mmHg 90%
21:00 +8°C° 0 mm 3 mps 750 mmHg 89%
22:00 +8°C° 0 mm 3 mps 750 mmHg 89%
23:00 +8°C° 0 mm 3 mps 751 mmHg 90%

Tomorrow, 26 October, Monday

Time Temperature Precipitation Wind Pressure Humidity
00:00 +8°C° 0 mm 3 mps 751 mmHg 90%
01:00 +7°C° 0 mm 3 mps 751 mmHg 90%
02:00 +7°C° 0 mm 3 mps 752 mmHg 91%
03:00 +6°C° 0 mm 2 mps 752 mmHg 91%
04:00 +6°C° 0 mm 2 mps 752 mmHg 91%
05:00 +6°C° 0 mm 2 mps 753 mmHg 92%
06:00 +5°C° 0 mm 2 mps 753 mmHg 92%
07:00 +6°C° 0 mm 2 mps 753 mmHg 90%
08:00 +6°C° 0 mm 2 mps 753 mmHg 88%
09:00 +6°C° 0 mm 2 mps 754 mmHg 87%
10:00 +7°C° 0 mm 2 mps 754 mmHg 81%
11:00 +10°C° 0 mm 1 mps 754 mmHg 76%
12:00 +11°C° 0 mm 1 mps 754 mmHg 70%
13:00 +11°C° 0 mm 1 mps 755 mmHg 69%
14:00 +11°C° 0 mm 1 mps 755 mmHg 67%
15:00 +12°C° 0 mm 1 mps 755 mmHg 66%
16:00 +10°C° 0 mm 0 mps 755 mmHg 71%
17:00 +8°C° 0 mm 0 mps 755 mmHg 76%
18:00 +7°C° 0 mm 0 mps 755 mmHg 81%
19:00 +7°C° 0 mm 0 mps 755 mmHg 83%
20:00 +8°C° 0 mm 1 mps 756 mmHg 85%
21:00 +7°C° 0 mm 1 mps 756 mmHg 87%
22:00 +6°C° 0 mm 2 mps 756 mmHg 88%
23:00 +6°C° 0 mm 2 mps 756 mmHg 90%

Day after tomorrow, 27 October, Tuesday

Time Temperature Precipitation Wind Pressure Humidity
00:00 +5°C° 0 mm 2 mps 756 mmHg 92%
01:00 +5°C° 0 mm 2 mps 756 mmHg 93%
02:00 +5°C° 0 mm 2 mps 757 mmHg 94%
03:00 +5°C° 0 mm 2 mps 757 mmHg 95%
04:00 +5°C° 0 mm 2 mps 757 mmHg 95%
05:00 +5°C° 0 mm 2 mps 757 mmHg 95%
06:00 +5°C° 0 mm 2 mps 757 mmHg 95%
07:00 +4°C° 0 mm 3 mps 757 mmHg 93%
08:00 +4°C° 0 mm 3 mps 757 mmHg 92%
09:00 +5°C° 0 mm 3 mps 757 mmHg 91%
10:00 +7°C° 0 mm 3 mps 758 mmHg 86%
11:00 +8°C° 0 mm 3 mps 758 mmHg 82%
12:00 +9°C° 0 mm 3 mps 758 mmHg 78%
13:00 +9°C° 0 mm 3 mps 758 mmHg 77%
14:00 +10°C° 0 mm 3 mps 757 mmHg 76%
15:00 +10°C° 0 mm 3 mps 757 mmHg 75%
16:00 +9°C° 0 mm 3 mps 757 mmHg 80%
17:00 +8°C° 0 mm 3 mps 757 mmHg 85%
18:00 +7°C° 0 mm 3 mps 757 mmHg 90%
19:00 +7°C° 0 mm 3 mps 757 mmHg 91%
20:00 +5°C° 0 mm 3 mps 758 mmHg 91%
21:00 +5°C° 0 mm 3 mps 758 mmHg 92%
22:00 +5°C° 0 mm 3 mps 758 mmHg 92%
23:00 +5°C° 0 mm 3 mps 757 mmHg 92%

, 28 October, Wednesday

Time Temperature Precipitation Wind Pressure Humidity
00:00 +5°C° 0 mm 4 mps 757 mmHg 92%
01:00 +5°C° 0 mm 3 mps 757 mmHg 92%
02:00 +4°C° 0 mm 3 mps 757 mmHg 92%
03:00 +4°C° 0 mm 3 mps 757 mmHg 92%
04:00 +4°C° 0 mm 3 mps 757 mmHg 92%
05:00 +4°C° 0 mm 3 mps 757 mmHg 91%
06:00 +4°C° 0 mm 4 mps 757 mmHg 91%
07:00 +4°C° 0 mm 4 mps 757 mmHg 88%
08:00 +5°C° 0 mm 4 mps 758 mmHg 85%
09:00 +5°C° 0 mm 4 mps 758 mmHg 83%
10:00 +6°C° 0 mm 5 mps 758 mmHg 77%
11:00 +8°C° 0 mm 5 mps 758 mmHg 72%
12:00 +9°C° 0 mm 5 mps 758 mmHg 66%
13:00 +9°C° 0 mm 5 mps 758 mmHg 65%
14:00 +9°C° 0 mm 5 mps 757 mmHg 65%
15:00 +9°C° 0 mm 5 mps 757 mmHg 64%
16:00 +8°C° 0 mm 4 mps 757 mmHg 68%
17:00 +7°C° 0 mm 4 mps 757 mmHg 73%
18:00 +6°C° 0 mm 4 mps 757 mmHg 77%
19:00 +6°C° 0 mm 4 mps 757 mmHg 76%
20:00 +5°C° 0 mm 4 mps 757 mmHg 76%
21:00 +5°C° 0 mm 4 mps 757 mmHg 76%
22:00 +4°C° 0 mm 4 mps 758 mmHg 76%
23:00 +4°C° 0 mm 4 mps 758 mmHg 75%

28 October, Wednesday

Time Temperature Precipitation Wind Pressure Humidity
00:00 +5°C° 0 mm 4 mps 757 mmHg 92%
01:00 +5°C° 0 mm 3 mps 757 mmHg 92%
02:00 +4°C° 0 mm 3 mps 757 mmHg 92%
03:00 +4°C° 0 mm 3 mps 757 mmHg 92%
04:00 +4°C° 0 mm 3 mps 757 mmHg 92%
05:00 +4°C° 0 mm 3 mps 757 mmHg 91%
06:00 +4°C° 0 mm 4 mps 757 mmHg 91%
07:00 +4°C° 0 mm 4 mps 757 mmHg 88%
08:00 +5°C° 0 mm 4 mps 758 mmHg 85%
09:00 +5°C° 0 mm 4 mps 758 mmHg 83%
10:00 +6°C° 0 mm 5 mps 758 mmHg 77%
11:00 +8°C° 0 mm 5 mps 758 mmHg 72%
12:00 +9°C° 0 mm 5 mps 758 mmHg 66%
13:00 +9°C° 0 mm 5 mps 758 mmHg 65%
14:00 +9°C° 0 mm 5 mps 757 mmHg 65%
15:00 +9°C° 0 mm 5 mps 757 mmHg 64%
16:00 +8°C° 0 mm 4 mps 757 mmHg 68%
17:00 +7°C° 0 mm 4 mps 757 mmHg 73%
18:00 +6°C° 0 mm 4 mps 757 mmHg 77%
19:00 +6°C° 0 mm 4 mps 757 mmHg 76%
20:00 +5°C° 0 mm 4 mps 757 mmHg 76%
21:00 +5°C° 0 mm 4 mps 757 mmHg 76%
22:00 +4°C° 0 mm 4 mps 758 mmHg 76%
23:00 +4°C° 0 mm 4 mps 758 mmHg 75%

29 October, Thursday

Time Temperature Precipitation Wind Pressure Humidity
00:00 +3°C° 0 mm 3 mps 758 mmHg 75%
01:00 +3°C° 0 mm 3 mps 758 mmHg 73%
02:00 +2°C° 0 mm 3 mps 758 mmHg 72%
03:00 +2°C° 0 mm 3 mps 757 mmHg 70%
04:00 +2°C° 0 mm 3 mps 757 mmHg 69%
05:00 +1°C° 0 mm 3 mps 757 mmHg 68%
06:00 +1°C° 0 mm 3 mps 757 mmHg 66%
07:00 +1°C° 0 mm 3 mps 757 mmHg 64%
08:00 0°C° 0 mm 4 mps 757 mmHg 62%
09:00 +1°C° 0 mm 4 mps 757 mmHg 60%
10:00 +3°C° 0 mm 4 mps 757 mmHg 59%
11:00 +4°C° 0 mm 4 mps 757 mmHg 57%
12:00 +5°C° 0 mm 4 mps 757 mmHg 56%
13:00 +5°C° 0 mm 4 mps 756 mmHg 57%
14:00 +6°C° 0 mm 4 mps 756 mmHg 57%
15:00 +6°C° 0 mm 4 mps 756 mmHg 58%
16:00 +5°C° 0 mm 4 mps 756 mmHg 62%
17:00 +4°C° 0 mm 4 mps 756 mmHg 66%
18:00 +3°C° 0 mm 3 mps 755 mmHg 70%
19:00 +3°C° 0 mm 3 mps 755 mmHg 69%
20:00 +3°C° 0 mm 3 mps 755 mmHg 69%
21:00 +3°C° 0 mm 3 mps 755 mmHg 69%
22:00 +3°C° 0 mm 3 mps 755 mmHg 69%
23:00 +3°C° 0 mm 3 mps 755 mmHg 70%

30 October, Friday

Time Temperature Precipitation Wind Pressure Humidity
00:00 +4°C° 0 mm 2 mps 754 mmHg 70%
01:00 +4°C° 0 mm 2 mps 754 mmHg 70%
02:00 +3°C° 0 mm 2 mps 754 mmHg 71%
03:00 +3°C° 0 mm 2 mps 754 mmHg 71%
04:00 +3°C° 0 mm 2 mps 754 mmHg 72%
05:00 +3°C° 0 mm 2 mps 754 mmHg 73%
06:00 +3°C° 0 mm 2 mps 753 mmHg 74%
07:00 +3°C° 0 mm 2 mps 753 mmHg 73%
08:00 +3°C° 0 mm 3 mps 753 mmHg 72%
09:00 +3°C° 0 mm 3 mps 753 mmHg 71%
10:00 +4°C° 0 mm 3 mps 753 mmHg 70%
11:00 +6°C° 0 mm 2 mps 753 mmHg 69%
12:00 +6°C° 0 mm 2 mps 753 mmHg 68%
13:00 +7°C° 0 mm 2 mps 753 mmHg 68%
14:00 +8°C° 0 mm 2 mps 753 mmHg 68%
15:00 +8°C° 0 mm 2 mps 752 mmHg 68%
16:00 +7°C° 0 mm 2 mps 753 mmHg 74%
17:00 +6°C° 0 mm 2 mps 753 mmHg 79%
18:00 +5°C° 0 mm 2 mps 753 mmHg 84%
19:00 +5°C° 0 mm 2 mps 753 mmHg 86%
20:00 +5°C° 0 mm 2 mps 753 mmHg 87%
21:00 +4°C° 0 mm 2 mps 753 mmHg 89%
22:00 +4°C° 0 mm 2 mps 753 mmHg 89%
23:00 +4°C° 0 mm 2 mps 753 mmHg 90%
Show more